Tracking 18980 objects as of 23-Feb-2018
HD Live streaming from Space Station
objects crossing your sky now

SL-19 R/B

Track SL-19 R/B now!
10-day predictions


NORAD ID: 36589
Int'l Code: 2010-023B
Perigee: 881.4 km
Apogee: 1,216.1 km
Inclination: 100.5 °
Period: 106.0 minutes
Semi major axis: 7419 km
RCS: 6.505 m2 (large)
Launch date: June 2, 2010
Source: Commonwealth of Independent States (former USSR) (CIS)
Launch site: PLESETSK MISSILE AND SPACE COMPLEX (PKMTR)

Note: This is a ROCKET BODY
aabbcc
Your satellite tracking list
Your tracking list is empty




NASA's NSSDC Master Catalog

Two Line Element Set (TLE):
1 36589U 10023B   18053.20162352 -.00000050  00000-0  45015-6 0  9992
2 36589 100.4826 121.9503 0225533 189.9789 235.5645 13.58372504383323
Source of the keplerian elements: AFSPC